Weather History for KGCC - November, 2014

Change the Weather History Date:

Wednesday, November 12, 2014

  Actual Average Record
Temperature  
Mean Temperature -4 °F 34 °F  
Max Temperature 6 °F 47 °F 75 °F (1999)
Min Temperature -14 °F 22 °F -14 °F (1986)
Degree Days  
Heating Degree Days 69 30  
Month to date heating degree days 355 336  
Since 1 July heating degree days 1069 1245  
Cooling Degree Days 0 0  
Month to date cooling degree days 0 0  
Year to date cooling degree days 412 502  
Moisture  
Dew Point -10 °F    
Average Humidity 77    
Maximum Humidity 87    
Minimum Humidity 66    
Precipitation  
Precipitation 0.00 in 0.03 in 0.44 in (1959)
Month to date precipitation 0.27 0.27  
Year to date precipitation 17.41 13.21  
Sea Level Pressure  
Sea Level Pressure 30.73 in    
Wind  
Wind Speed 8 mph (West)    
Max Wind Speed 16 mph    
Max Gust Speed 20 mph    
Visibility 10 miles    
Events      
T = Trace of Precipitation, MM = Missing Value Source: NWS Daily Summary

Daily Weather History Graph

Daily Weather History Graph

Search for Another Location

Airport or City:

Trip Planner

Search our weather history database for the weather conditions in past years. The results will help you decide how hot, cold, wet, or windy it might be!

Date:

Astronomy

Nov. 12, 2014 Rise Set
Actual Time 6:54 AM MST 4:38 PM MST
Civil Twilight 6:22 AM MST 5:09 PM MST
Nautical Twilight 5:48 AM MST 5:44 PM MST
Astronomical Twilight 5:13 AM MST 6:18 PM MST
Moon 10:02 PM MST (11/12) 11:40 AM MST (11/12)
Length of Visible Light 10h 46m
Length of Day
9h 43m
Waning Gibbous, 67% of the Moon is Illuminated
Nov 12
Waning Gibbous
Nov 14
Last Quarter
Nov 22
New
Nov 29
First Quarter
Dec 6
Full

Hourly Weather History & Observations

Time (MST) Temp. Windchill Dew Point Humidity Pressure Visibility Wind Dir Wind Speed Gust Speed Precip Events Conditions
12:53 AM -11.0 °F -29.9 °F -15.0 °F 83% 30.80 in 10.0 mi West 10.4 mph - N/A   Clear
1:25 AM -11.9 °F -28.7 °F -17.0 °F 78% 30.48 in 10.0 mi West 8.1 mph - N/A   Mostly Cloudy
1:53 AM -8.0 °F -27.1 °F -11.9 °F 83% 30.79 in 10.0 mi West 11.5 mph - N/A   Overcast
2:37 AM -9.9 °F -28.6 °F -14.1 °F 82% 30.48 in 10.0 mi West 10.4 mph - N/A   Mostly Cloudy
2:53 AM -9.9 °F -26.3 °F -15.0 °F 78% 30.81 in 10.0 mi West 8.1 mph - N/A   Mostly Cloudy
3:53 AM -7.1 °F -18.1 °F -11.9 °F 79% 30.80 in 10.0 mi West 4.6 mph - N/A   Overcast
4:38 AM -6.0 °F -22.6 °F -9.9 °F 83% 30.49 in 10.0 mi West 9.2 mph - N/A   Overcast
4:53 AM -6.0 °F -23.6 °F -11.0 °F 79% 30.81 in 10.0 mi West 10.4 mph - N/A   Overcast
5:53 AM -4.0 °F -24.5 °F -9.0 °F 79% 30.81 in 10.0 mi West 15.0 mph - N/A   Overcast
6:53 AM -6.0 °F -26.3 °F -11.0 °F 79% 30.84 in 10.0 mi West 13.8 mph - N/A   Mostly Cloudy
7:15 AM -6.0 °F -27.0 °F -11.0 °F 79% 30.50 in 10.0 mi West 15.0 mph - N/A   Mostly Cloudy
7:44 AM -5.1 °F -24.3 °F -9.9 °F 80% 30.52 in 10.0 mi West 12.7 mph - N/A   Mostly Cloudy
7:53 AM -5.1 °F -24.3 °F -9.9 °F 80% 30.87 in 10.0 mi West 12.7 mph - N/A   Mostly Cloudy
8:44 AM -2.9 °F -20.8 °F -8.0 °F 79% 30.53 in 6.0 mi WNW 11.5 mph - N/A   Haze
8:53 AM -2.0 °F -18.7 °F -7.1 °F 79% 30.88 in 6.0 mi WNW 10.4 mph - N/A   Haze
9:53 AM 1.0 °F -15.8 °F -5.1 °F 75% 30.85 in 5.0 mi NW 11.5 mph - N/A   Haze
10:53 AM 1.9 °F -13.8 °F -5.1 °F 72% 30.86 in 10.0 mi WNW 10.4 mph - N/A   Overcast
11:53 AM 3.9 °F -13.0 °F -4.0 °F 70% 30.81 in 10.0 mi WNW 12.7 mph - N/A   Mostly Cloudy
12:10 PM 5.0 °F -9.1 °F -4.0 °F 66% 30.50 in 10.0 mi WNW 9.2 mph - N/A   Scattered Clouds
12:31 PM 5.0 °F -10.0 °F -4.0 °F 66% 30.50 in 10.0 mi NNW 10.4 mph - N/A   Mostly Cloudy
12:53 PM 3.9 °F -12.2 °F -5.1 °F 66% 30.81 in 10.0 mi NNW 11.5 mph - N/A   Mostly Cloudy
1:53 PM 5.0 °F -6.9 °F -5.1 °F 63% 30.79 in 10.0 mi NW 6.9 mph - N/A   Overcast
2:53 PM 5.0 °F -9.1 °F -2.9 °F 70% 30.80 in 5.0 mi North 9.2 mph - N/A   Haze
3:53 PM 3.9 °F -9.4 °F -4.0 °F 70% 30.80 in 10.0 mi North 8.1 mph - N/A   Overcast
4:53 PM 1.0 °F -8.7 °F -5.1 °F 75% 30.80 in 10.0 mi NW 4.6 mph - N/A   Overcast
5:53 PM -0.0 °F -7.9 °F -6.0 °F 76% 30.80 in 10.0 mi NNW 3.5 mph - N/A   Overcast
6:53 PM -7.1 °F - -11.0 °F 83% 30.83 in 10.0 mi Calm Calm - N/A   Overcast
7:53 PM -9.0 °F -18.2 °F -13.0 °F 83% 30.83 in 10.0 mi SW 3.5 mph - N/A   Overcast
8:16 PM -11.9 °F -23.8 °F -16.1 °F 82% 30.48 in 10.0 mi SSW 4.6 mph - N/A   Scattered Clouds
8:53 PM -13.0 °F -25.1 °F -16.1 °F 86% 30.83 in 10.0 mi South 4.6 mph - N/A   Partly Cloudy
9:53 PM -9.9 °F -26.3 °F -15.0 °F 78% 30.79 in 10.0 mi SW 8.1 mph - N/A   Clear
10:53 PM -9.0 °F -20.4 °F -15.0 °F 75% 30.78 in 10.0 mi South 4.6 mph - N/A   Clear
11:53 PM -11.9 °F -25.7 °F -17.0 °F 78% 30.77 in 10.0 mi South 5.8 mph - N/A   Clear